Tracking 20621 objects as of 1-Apr-2020
HD Live streaming from Space Station
objects crossing your sky now

STARLINK-1175

Track STARLINK-1175 now!
10-day predictions
STARLINK-1175 is classified as:


NORAD ID: 45097
Int'l Code: 2020-006BF
Perigee: 381.8 km
Apogee: 391.9 km
Inclination: 53.0 °
Period: 92.1 minutes
Semi major axis: 6757 km
RCS: Unknown
Launch date: January 29, 2020
Source: United States (US)
Launch site: AIR FORCE EASTERN TEST RANGE (AFETR)
aabbcc
Your satellite tracking list
Your tracking list is empty




NASA's NSSDC Master Catalog

Two Line Element Set (TLE):
1 45097U 20006BF  20091.91667824 +.00037914 +00000-0 +41760-3 0  9993
2 45097 053.0010 286.8672 0007494 323.3605 218.7516 15.62745735010276
Source of the keplerian elements: AFSPC